| time (UTC) | temp F | wind direction | speed MPH | gust MPH | rain 1hr in | rain 24hr in | rain mn in | humidity % | barometer mb |
| 20260504234018 | 64 | 270 | 4.0 | 9.0 | 0.00 | 0.00 | 0.00 | 46 | 1008.8 |
| 20260504233018 | 65 | 293 | 3.0 | 11.0 | 0.00 | 0.00 | 0.00 | 45 | 1008.8 |
| 20260504232018 | 66 | 293 | 3.0 | 11.0 | 0.00 | 0.00 | 0.00 | 45 | 1008.5 |
| 20260504231019 | 67 | 293 | 3.0 | 7.0 | 0.00 | 0.00 | 0.00 | 43 | 1008.3 |
| 20260504230018 | 67 | 293 | 3.0 | 9.0 | 0.00 | 0.00 | 0.00 | 42 | 1008.2 |
| 20260504225018 | 68 | 315 | 3.0 | 8.0 | 0.00 | 0.00 | 0.00 | 41 | 1008.0 |
| 20260504224018 | 69 | 315 | 3.0 | 9.0 | 0.00 | 0.00 | 0.00 | 39 | 1007.8 |
| 20260504223018 | 70 | 315 | 3.0 | 8.0 | 0.00 | 0.00 | 0.00 | 37 | 1007.8 |
| 20260504222018 | 71 | 293 | 4.0 | 10.0 | 0.00 | 0.00 | 0.00 | 34 | 1007.6 |
| 20260504221018 | 72 | 293 | 3.0 | 9.0 | 0.00 | 0.00 | 0.00 | 33 | 1007.7 |
| 20260504220018 | 72 | 293 | 3.0 | 7.0 | 0.00 | 0.00 | 0.00 | 33 | 1007.6 |
| 20260504215018 | 72 | 203 | 2.0 | 5.0 | 0.00 | 0.00 | 0.00 | 34 | 1007.7 |
| 20260504214018 | 72 | 293 | 3.0 | 7.0 | 0.00 | 0.00 | 0.00 | 33 | 1007.7 |
| 20260504213018 | 72 | 293 | 3.0 | 7.0 | 0.00 | 0.00 | 0.00 | 33 | 1007.7 |
| 20260504212018 | 72 | 270 | 3.0 | 7.0 | 0.00 | 0.00 | 0.00 | 32 | 1007.8 |
| 20260504211018 | 72 | 315 | 3.0 | 8.0 | 0.00 | 0.00 | 0.00 | 33 | 1007.7 |
| 20260504210019 | 73 | 293 | 3.0 | 10.0 | 0.00 | 0.00 | 0.00 | 33 | 1007.7 |
| 20260504205018 | 73 | 293 | 3.0 | 9.0 | 0.00 | 0.00 | 0.00 | 32 | 1007.6 |
| 20260504204018 | 72 | 293 | 3.0 | 7.0 | 0.00 | 0.00 | 0.00 | 33 | 1007.7 |
| 20260504203018 | 73 | 293 | 4.0 | 10.0 | 0.00 | 0.00 | 0.00 | 31 | 1007.7 |
| 20260504202038 | 73 | 315 | 4.0 | 13.0 | 0.00 | 0.00 | 0.00 | 32 | 1007.8 |
| 20260504201018 | 72 | 270 | 5.0 | 15.0 | 0.00 | 0.00 | 0.00 | 30 | 1007.8 |
| 20260504200018 | 73 | 315 | 4.0 | 13.0 | 0.00 | 0.00 | 0.00 | 31 | 1007.9 |
| 20260504195018 | 73 | 270 | 3.0 | 9.0 | 0.00 | 0.00 | 0.00 | 32 | 1007.9 |
| 20260504194018 | 72 | 270 | 4.0 | 10.0 | 0.00 | 0.00 | 0.00 | 31 | 1007.9 |
| 20260504193018 | 72 | 270 | 3.0 | 9.0 | 0.00 | 0.00 | 0.00 | 32 | 1007.9 |
| 20260504192018 | 72 | 293 | 3.0 | 8.0 | 0.00 | 0.00 | 0.00 | 31 | 1007.9 |
| 20260504191018 | 72 | 293 | 5.0 | 10.0 | 0.00 | 0.00 | 0.00 | 30 | 1008.2 |
| 20260504190059 | 72 | 293 | 6.0 | 12.0 | 0.00 | 0.00 | 0.00 | 31 | 1008.1 |
| 20260504185018 | 72 | 315 | 5.0 | 11.0 | 0.00 | 0.00 | 0.00 | 31 | 1008.2 |
| 20260504184018 | 71 | 293 | 6.0 | 17.0 | 0.00 | 0.00 | 0.00 | 30 | 1008.3 |
| 20260504183038 | 72 | 270 | 4.0 | 16.0 | 0.00 | 0.00 | 0.00 | 31 | 1008.6 |
| 20260504182038 | 71 | 293 | 4.0 | 10.0 | 0.00 | 0.00 | 0.00 | 30 | 1008.6 |
| 20260504181018 | 70 | 315 | 5.0 | 13.0 | 0.00 | 0.00 | 0.00 | 32 | 1008.6 |
| 20260504180018 | 70 | 315 | 5.0 | 17.0 | 0.00 | 0.00 | 0.00 | 33 | 1008.7 |
| 20260504175018 | 70 | 270 | 6.0 | 12.0 | 0.00 | 0.00 | 0.00 | 34 | 1008.7 |
| 20260504174018 | 70 | 293 | 6.0 | 10.0 | 0.00 | 0.00 | 0.00 | 33 | 1008.8 |
| 20260504173038 | 70 | 293 | 4.0 | 13.0 | 0.00 | 0.00 | 0.00 | 34 | 1009.1 |
| 20260504172058 | 70 | 293 | 3.0 | 9.0 | 0.00 | 0.00 | 0.00 | 33 | 1009.0 |
| 20260504171018 | 69 | 270 | 5.0 | 12.0 | 0.00 | 0.00 | 0.00 | 36 | 1009.0 |
| 20260504151100 | 66 | 293 | 4.0 | 11.0 | 0.00 | 0.00 | 0.00 | 38 | 1010.3 |
| 20260504141018 | 64 | 270 | 3.0 | 10.0 | 0.00 | 0.00 | 0.00 | 40 | 1010.5 |
| 20260504081019 | 46 | 0.0 | 1.0 | 0.00 | 0.00 | 0.00 | 62 | 1011.4 | |
| 20260504050019 | 43 | 225 | 1.0 | 3.0 | 0.00 | 0.00 | 0.00 | 61 | 1011.2 |
| 20260504045018 | 42 | 225 | 1.0 | 6.0 | 0.00 | 0.00 | 0.00 | 63 | 1011.3 |
| 20260504044019 | 41 | 0.0 | 0.0 | 0.00 | 0.00 | 0.00 | 66 | 1011.3 | |
| 20260504043018 | 40 | 0.0 | 0.0 | 0.00 | 0.00 | 0.00 | 66 | 1011.2 | |
| 20260504042018 | 40 | 0.0 | 0.0 | 0.00 | 0.00 | 0.00 | 67 | 1011.2 | |
| 20260504041018 | 40 | 0.0 | 1.0 | 0.00 | 0.00 | 0.00 | 68 | 1011.0 | |
| 20260504040038 | 39 | 0.0 | 0.0 | 0.00 | 0.00 | 0.00 | 70 | 1010.8 | |
| 20260504035019 | 39 | 0.0 | 1.0 | 0.00 | 0.00 | 0.00 | 71 | 1010.7 | |
| 20260504034018 | 38 | 0.0 | 0.0 | 0.00 | 0.00 | 0.00 | 72 | 1010.7 | |
| 20260504033018 | 38 | 0.0 | 0.0 | 0.00 | 0.00 | 0.00 | 73 | 1010.6 | |
| 20260504032018 | 38 | 0.0 | 0.0 | 0.00 | 0.00 | 0.00 | 72 | 1010.6 | |
| 20260504031019 | 39 | 0.0 | 0.0 | 0.00 | 0.00 | 0.00 | 72 | 1010.6 | |
| 20260504030018 | 39 | 0.0 | 0.0 | 0.00 | 0.00 | 0.00 | 72 | 1010.5 | |
| 20260504025019 | 39 | 0.0 | 0.0 | 0.00 | 0.00 | 0.00 | 72 | 1010.4 | |
| 20260504024018 | 39 | 0.0 | 0.0 | 0.00 | 0.00 | 0.00 | 72 | 1010.5 | |
| 20260504023018 | 40 | 0.0 | 0.0 | 0.00 | 0.00 | 0.00 | 71 | 1010.5 | |
| 20260504022018 | 40 | 0.0 | 0.0 | 0.00 | 0.00 | 0.00 | 71 | 1010.5 | |
| 20260504021018 | 40 | 0.0 | 0.0 | 0.00 | 0.00 | 0.00 | 70 | 1010.5 | |
| 20260504020018 | 41 | 0.0 | 0.0 | 0.00 | 0.00 | 0.00 | 69 | 1010.5 | |
| 20260504015018 | 41 | 0.0 | 0.0 | 0.00 | 0.00 | 0.00 | 68 | 1010.5 | |
| 20260504014018 | 41 | 0.0 | 0.0 | 0.00 | 0.00 | 0.00 | 67 | 1010.4 | |
| 20260504013019 | 42 | 0.0 | 0.0 | 0.00 | 0.00 | 0.00 | 66 | 1010.4 | |
| 20260504012018 | 43 | 0.0 | 0.0 | 0.00 | 0.00 | 0.00 | 64 | 1010.2 | |
| 20260504011018 | 43 | 0.0 | 0.0 | 0.00 | 0.00 | 0.00 | 63 | 1010.1 | |
| 20260504010038 | 44 | 225 | 1.0 | 2.0 | 0.00 | 0.00 | 0.00 | 62 | 1010.0 |
| 20260504005018 | 45 | 225 | 1.0 | 2.0 | 0.00 | 0.00 | 0.00 | 59 | 1009.9 |
| 20260504004018 | 46 | 225 | 1.0 | 2.0 | 0.00 | 0.00 | 0.00 | 57 | 1009.8 |
| 20260504003038 | 47 | 225 | 1.0 | 2.0 | 0.00 | 0.00 | 0.00 | 56 | 1009.7 |
| 20260504002018 | 48 | 0.0 | 2.0 | 0.00 | 0.00 | 0.00 | 54 | 1009.6 | |
| 20260504001038 | 48 | 0.0 | 0.0 | 0.00 | 0.00 | 0.00 | 50 | 1009.6 | |
| 20260504000018 | 49 | 225 | 1.0 | 4.0 | 0.00 | 0.00 | 0.00 | 48 | 1009.4 |
| 20260503235018 | 50 | 0.0 | 2.0 | 0.00 | 0.00 | 0.00 | 46 | 1009.4 |